SPOT 6

Last updated on Wed Sep 17 2025 00:02:30 GMT+0000 (Coordinated Universal Time)

1 38755U 12047A 25259.61490824 .00000266 00000+0 67013-4 0 9993 2 38755 98.1688 325.9500 0001378 105.2649 254.8702 14.58593058693172
UTC large
Height (km)
Speed (km/s)
/
Latitude / Longitude
Inclination (degrees)
Orbital Period (minutes)
Azimuth
Elevation
Range (km)
Doppler Factor

Next 0 passes for location: London (51.5072 / 0.1276)

Sorry there are no passes over London.